{"data":{"norad_id":58614,"epoch":"2026-09-21T22:56:07.371168Z","epoch_age_seconds":121850,"freshness":"FRESH","line1":"1 58614U 23201A   26264.95564087  .00002300  00000+0  93995-4 0  9999","line2":"2 58614  97.6366 216.2837 0002840  72.7723 287.3825 15.25430313153230","mean_motion":15.25430313,"eccentricity":0.000284,"inclination_deg":97.6366,"raan_deg":216.2837,"arg_perigee_deg":72.7723,"mean_anomaly_deg":287.3825,"bstar":9.3995e-5,"rev_number":15323,"period_min":94.399592543039,"perigee_km":487.54318327946,"apogee_km":491.44399745479,"semimajor_km":6867.6305903671,"source":"CELESTRAK","updated_at":"2026-09-22T09:00:26.744091Z"}}